Deer Park, WA

8:12 AM PDT on August 28, 2016 (GMT -0700)
Deer Park

Weather History for KDEW - April, 2013

Change the Weather History Date:

Thursday, April 4, 2013

  Actual Average Record
Temperature  
Mean Temperature 47 °F 43 °F  
Max Temperature 57 °F 55 °F 66 °F (2004)
Min Temperature 36 °F 31 °F 21 °F (2001)
Degree Days  
Heating Degree Days 18 22  
Month to date heating degree days 55 90  
Since 1 July heating degree days 5960 6297  
Cooling Degree Days 0 0  
Month to date cooling degree days 0 0  
Year to date cooling degree days 0 0  
Moisture  
Dew Point 44 °F    
Average Humidity 74    
Maximum Humidity 93    
Minimum Humidity 55    
Precipitation  
Precipitation 0.19 in 0.07 in 0.43 in (2012)
Month to date precipitation 0.19 0.29  
Year to date precipitation 3.67 6.61  
Sea Level Pressure  
Sea Level Pressure 29.82 in    
Wind  
Wind Speed 6 mph (ENE)    
Max Wind Speed 18 mph    
Max Gust Speed 23 mph    
Visibility 9 miles    
Events Rain    
T = Trace of Precipitation, MM = Missing Value Source: NWS Daily Summary

Daily Weather History Graph

Daily Weather History Graph

Search for Another Location

Airport or City:

Trip Planner

Search our weather history database for the weather conditions in past years. The results will help you decide how hot, cold, wet, or windy it might be!

Date:

Astronomy

Apr. 04, 2013 Rise Set
Actual Time 6:21 AM PDT 7:24 PM PDT
Civil Twilight 5:49 AM PDT 7:56 PM PDT
Nautical Twilight 5:11 AM PDT 8:34 PM PDT
Astronomical Twilight 4:31 AM PDT 9:15 PM PDT
Moon 3:16 AM PDT (4/4) 1:24 PM PDT (4/4)
Length of Visible Light 14h 06m
Length of Day
13h 03m
Waning Crescent, 32% of the Moon is Illuminated
Apr 4
Waning Crescent
Apr 10
New
Apr 18
First Quarter
Apr 25
Full
May 2
Last Quarter

Hourly Weather History & Observations

Time (PDT) Temp. Windchill Dew Point Humidity Pressure Visibility Wind Dir Wind Speed Gust Speed Precip Events Conditions
12:53 AM 39.9 °F - 37.0 °F 89% 30.02 in 10.0 mi Calm Calm - N/A   Clear
1:53 AM 36.0 °F 32.1 °F 34.0 °F 93% 30.02 in 10.0 mi ENE 4.6 mph - N/A   Clear
2:53 AM 42.1 °F 39.2 °F 37.0 °F 82% 29.99 in 10.0 mi NE 4.6 mph - N/A   Mostly Cloudy
3:53 AM 39.9 °F 36.7 °F 36.0 °F 86% 29.98 in 10.0 mi North 4.6 mph - N/A   Mostly Cloudy
4:53 AM 43.0 °F 41.3 °F 37.0 °F 80% 29.96 in 10.0 mi North 3.5 mph - N/A   Overcast
5:53 AM 44.1 °F 40.8 °F 37.9 °F 79% 29.95 in 10.0 mi North 5.8 mph - N/A   Overcast
6:53 AM 45.0 °F 39.7 °F 37.9 °F 76% 29.92 in 10.0 mi NNE 10.4 mph - N/A   Scattered Clouds
7:53 AM 46.9 °F - 37.9 °F 71% 29.93 in 10.0 mi North 3.5 mph - N/A   Mostly Cloudy
8:53 AM 48.9 °F - 39.0 °F 69% 29.91 in 10.0 mi NNE 9.2 mph - N/A   Overcast
9:53 AM 53.1 °F - 39.0 °F 59% 29.89 in 10.0 mi NNE 9.2 mph - N/A   Scattered Clouds
10:53 AM 54.0 °F - 39.0 °F 57% 29.88 in 10.0 mi NNE 4.6 mph - N/A   Overcast
11:53 AM 55.0 °F - 39.0 °F 55% 29.85 in 10.0 mi NNE 9.2 mph - N/A   Overcast
12:53 PM 55.9 °F - 39.0 °F 53% 29.83 in 10.0 mi NNE 8.1 mph - N/A   Overcast
1:53 PM 55.9 °F - 41.0 °F 57% 29.82 in 10.0 mi East 4.6 mph - N/A   Overcast
2:53 PM 52.0 °F - 48.0 °F 86% 29.80 in 5.0 mi Calm Calm - 0.05 in Rain Light Rain
3:16 PM 51.8 °F - 48.2 °F 88% 29.78 in 2.0 mi North 3.5 mph - 0.02 in Rain Light Rain
3:27 PM 51.8 °F - 46.4 °F 82% 29.78 in 4.0 mi NNE 3.5 mph - 0.03 in Rain Light Rain
3:53 PM 51.1 °F - 48.0 °F 89% 29.78 in 5.0 mi NNE 5.8 mph - 0.05 in Rain Light Rain
4:27 PM 50.0 °F - 48.2 °F 94% 29.76 in 1.8 mi Calm Calm - 0.03 in Rain Rain
4:33 PM 50.0 °F - 48.2 °F 94% 29.76 in 3.0 mi NE 3.5 mph - 0.04 in Rain Light Rain
4:53 PM 50.0 °F - 48.0 °F 93% 29.77 in 8.0 mi Calm Calm - 0.05 in Rain Light Rain
5:30 PM 50.0 °F - 48.2 °F 94% 29.75 in 8.0 mi South 3.5 mph - 0.01 in Rain Light Rain
5:53 PM 51.1 °F - 48.9 °F 92% 29.75 in 10.0 mi South 4.6 mph - 0.02 in   Overcast
6:53 PM 51.1 °F - 48.9 °F 92% 29.75 in 8.0 mi South 10.4 mph - 0.00 in Rain Light Rain
7:03 PM 51.8 °F - 48.2 °F 88% 29.73 in 7.0 mi South 8.1 mph - 0.01 in Rain Light Rain
7:20 PM 50.0 °F - 48.2 °F 94% 29.72 in 10.0 mi South 9.2 mph - 0.01 in Rain Light Rain
7:53 PM 50.0 °F - 48.0 °F 93% 29.74 in 10.0 mi South 10.4 mph - 0.01 in   Overcast
8:36 PM 48.2 °F - 48.2 °F 100% 29.74 in 10.0 mi Calm Calm - N/A   Overcast
8:49 PM 48.2 °F - 46.4 °F 93% 29.74 in 10.0 mi SE 3.5 mph - 0.01 in   Overcast
8:53 PM 48.9 °F - 46.9 °F 93% 29.75 in 10.0 mi SE 3.5 mph - 0.01 in   Overcast
9:17 PM 48.2 °F - 46.4 °F 93% 29.75 in 10.0 mi SSE 3.5 mph - N/A   Overcast
9:42 PM 48.2 °F - 46.4 °F 93% 29.76 in 10.0 mi Calm Calm - N/A   Overcast
9:53 PM 48.9 °F - 46.9 °F 93% 29.77 in 10.0 mi Calm Calm - N/A   Overcast
10:23 PM 48.2 °F - 46.4 °F 93% 29.76 in 10.0 mi SSE 5.8 mph - N/A   Overcast
10:53 PM 50.0 °F - 46.9 °F 89% 29.77 in 10.0 mi South 4.6 mph - N/A   Overcast
11:53 PM 50.0 °F - 46.9 °F 89% 29.78 in 10.0 mi SSW 10.4 mph - N/A   Overcast